Погода в Узловом

Украина / Львовская область     50°13′28″N   24°32′57″E
темп.,
°C
ветер,
м/с
пор.,
м/с
влажн.,
%
обл.,
%
осадки,
мм/ч
давл.,
гПа
погр.,
м
16 сентября, чт
чт1600:00+14вюв357794 0.0 101867
03:00+13вюв36785 0.0 101783
06:00+12ююв348129 0.0 101667
09:00+16ююв466951 0.0 1015184
12:00+22ююв465594 0.0 1015530
15:00+25ююз564949 0.0 10141290
18:00+22ююв3565100 0.0 1013124
21:00+19юв1172100 0.2 101317
17 сентября, пт
пт1700:00+19ююз3371100 0.0 101252
03:00+17ююв4694100 3.1 1011137
06:00+16ю2296100 0.3 101043
09:00+17зюз238898 0.3 1009227
12:00+19зсз2277100 0.0 1008586
15:00+20всв1175100 0.3 1007557
18:00+17ссз1296100 4.6 100563
21:00+15сз71297100 14.1 1006583
18 сентября, сб
сб1800:00+14зсз91596100 8.4 1007669
03:00+14зсз81492100 10.4 1007681
06:00+13з71393100 0.3 1008704
09:00+13з81392100 0.3 1008785
12:00+13з81390100 0.3 1008788
15:00+12з71290100 1.3 1009859
18:00+12зсз51095100 1.5 1009680
21:00+10сз3694100 2.2 1010454
19 сентября, вс
вс1900:00+9сз3694100 0.4 1010474
03:00+7зсз4894100 3.3 1011585
06:00+6з5793100 1.1 1011930
09:00+6з6894100 1.4 1012924
12:00+7з5792100 0.4 1012969
15:00+7з5891100 0.9 1013603
18:00+7з5892100 0.3 1013607
21:00+6з5895100 0.8 1012588
20 сентября, пн
пн2000:00+7з5998100 0.8 1012426
03:00+7сз61196100 2.5 1011672
06:00+7сз6996100 0.9 1012586
09:00+7сз6996100 2.4 1013622
12:00+7сз5994100 1.4 1014709
15:00+6сз5893100 2.2 1015942
18:00+6ссз5894100 1.9 1017909
21:00+5ссз5895100 3.9 1018858